Theta_e
324 324 324 324 323 322 321 321 321 321 320 319 318 318 318 317 317 316 315 315 313 312 312 312 312 311 310 310 310 310 311 311 312 312 312 312 313 313 313 313 313 313
322 321 320 320 319 318 318 317 316 316 315 315 314 314 315 314 313 312 311 310 309 309 309 309 309 308 307 307 308 308 309 308 308 308 308 309 310 310 310 310 310 310
317 316 316 317 316 316 315 314 313 313 312 312 311 311 311 309 309 308 308 308 307 307 307 307 306 306 306 306 306 306 306 306 305 305 305 305 306 306 306 306 306 306
315 315 315 315 315 314 313 312 311 311 311 310 309 308 308 307 307 307 306 306 306 306 306 305 305 305 305 305 305 305 305 305 305 304 303 303 303 303 303 303 303 302
313 313 312 312 311 310 310 310 309 309 308 308 307 307 307 307 306 306 306 306 305 305 305 304 304 304 304 303 303 303 303 303 302 302 301 300 300 301 301 301 301 300
310 309 309 309 308 308 308 308 307 307 307 307 307 307 306 306 306 305 304 304 303 302 302 301 300 300 300 300 300 300 300 299 299 298 298 297 297 298 298 298 298 298
307 307 308 307 307 307 307 307 306 306 306 306 306 305 304 303 302 302 301 300 300 299 298 298 297 297 297 297 296 296 296 296 296 295 295 295 295 295 296 296 296 296
306 306 306 306 306 306 306 306 306 305 304 304 302 301 301 300 299 298 298 297 297 296 296 295 295 295 295 295 294 294 294 294 294 294 294 294 294 294 294 294 295 294
305 305 305 306 306 305 305 304 303 302 301 300 299 298 298 297 297 296 296 295 295 294 294 294 294 294 294 294 293 293 293 293 293 294 294 294 293 293 293 293 293 293
305 305 305 304 303 302 301 300 299 299 298 297 297 296 296 295 295 295 294 294 294 294 294 294 293 293 293 293 293 292 292 292 292 292 292 292 292 292 292 292 292 292
303 303 301 300 299 298 298 297 297 296 296 296 295 295 295 294 294 294 294 294 294 293 293 293 292 292 292 292 291 291 291 291 291 291 291 291 291 291 291 291 291 291
300 299 298 297 297 296 296 295 295 295 295 294 294 294 294 294 294 294 293 293 293 292 292 292 292 291 291 291 291 291 290 290 290 290 290 290 290 290 290 290 290 290
297 296 296 296 295 295 295 295 294 294 294 294 294 293 293 293 293 293 292 292 292 292 292 291 291 291 290 290 290 290 290 289 289 289 289 289 289 289 289 289 289 289
295 295 295 294 294 294 294 294 294 294 294 293 293 293 293 292 292 292 292 292 291 291 291 290 290 290 290 289 289 289 289 289 289 289 289 289 289 289 289 289 289 289
294 294 294 294 294 294 293 293 293 293 293 292 292 292 292 292 291 291 291 291 291 291 290 290 290 289 289 289 289 289 289 289 288 288 288 288 288 289 288 288 288 288
294 294 294 293 293 293 293 293 292 292 292 291 292 291 291 291 290 290 290 290 290 290 290 290 289 289 289 289 289 289 288 288 288 288 288 288 288 288 288 288 288 288
293 293 293 293 293 292 292 292 292 291 291 291 291 290 290 290 290 290 290 289 290 289 289 290 289 289 289 288 288 288 288 288 288 287 288 287 287 287 287 287 287 287
293 293 292 292 292 292 291 291 291 291 290 290 290 290 290 290 289 289 289 289 289 289 289 289 288 288 288 288 288 287 287 287 287 287 287 287 287 287 287 287 287 287
292 292 292 291 291 291 291 290 290 290 290 289 289 289 289 289 289 289 289 288 288 288 288 288 288 288 287 287 287 287 286 286 286 286 286 286 286 286 286 286 286 286
291 291 291 291 290 290 290 290 290 289 289 289 289 288 288 289 288 288 288 288 288 288 288 287 287 287 286 286 286 286 285 285 285 285 285 285 285 285 285 285 285 286
290 291 290 290 290 290 289 289 289 289 288 288 288 288 288 288 288 288 288 288 287 287 287 287 286 286 286 285 285 285 285 285 284 284 284 285 285 285 285 285 285 285
290 290 290 289 289 289 289 288 288 288 288 288 288 287 287 287 287 287 287 287 287 286 286 286 286 286 285 285 285 284 284 284 284 284 284 284 284 284 284 284 284 284
290 289 289 289 288 288 288 288 287 287 287 287 287 287 287 287 287 287 286 286 286 286 286 285 285 285 285 285 284 284 283 283 283 283 283 283 283 283 283 284 284 284
289 289 289 288 288 288 287 287 287 286 286 286 286 286 286 286 286 286 286 286 286 285 285 285 284 284 284 284 283 282 282 282 282 282 282 282 283 283 283 283 284 284
288 288 288 288 287 287 287 286 286 285 285 285 285 285 285 286 286 286 286 286 285 285 284 284 284 283 283 283 283 281 281 281 281 282 282 282 282 282 283 282 282 282
288 287 287 287 287 286 286 286 285 285 285 284 284 285 285 285 285 285 285 285 285 285 284 284 283 283 282 281 281 280 280 280 281 281 281 281 282 282 281 281 281 281
Wind_Speed
16 15 14 13 12 11 10 9 8 7 6 5 4 4 4 3 4 5 6 7 7 7 6 7 7 8 9 8 9 9 10 10 11 12 14 15 15 16 18 19 19 20
16 15 14 13 12 11 10 9 8 7 6 5 5 4 3 2 3 3 4 4 4 5 5 6 7 8 9 9 9 8 9 10 10 11 12 12 13 15 16 17 18 19
14 13 13 13 12 10 9 9 8 8 7 5 4 3 2 2 3 4 5 6 7 7 8 9 9 10 10 11 11 11 11 12 12 12 12 12 12 12 13 14 15 16
13 13 13 13 12 11 10 9 9 8 7 6 6 6 6 6 7 8 8 8 9 9 9 10 10 10 11 12 12 12 12 13 14 14 15 15 15 15 15 15 17 17
14 13 13 13 12 11 10 10 9 9 9 9 9 9 10 10 10 11 10 11 11 11 11 12 12 12 12 12 12 12 12 13 13 15 16 17 17 17 18 18 19 20
15 14 14 13 13 12 12 12 12 11 12 12 12 12 12 13 13 12 12 12 12 13 13 13 13 13 13 13 13 13 14 14 15 16 18 19 19 19 20 20 20 21
17 16 15 15 14 14 14 15 14 14 14 13 14 14 14 13 13 13 13 13 12 13 13 13 13 14 14 14 14 15 16 17 18 19 20 20 21 22 22 22 22 23
18 17 16 16 16 16 16 17 16 16 15 14 14 14 13 13 13 13 12 12 12 12 13 14 14 14 15 16 16 17 18 19 19 20 21 22 23 24 25 25 25 26
20 19 19 18 18 18 18 18 17 17 15 14 14 13 12 12 12 12 12 12 12 13 14 14 15 15 16 17 17 18 19 19 20 21 22 23 24 25 26 26 27 27
21 20 20 20 20 20 19 18 17 16 14 13 13 12 12 12 12 12 12 12 13 14 14 15 15 16 17 17 18 19 19 20 21 21 22 23 24 24 25 26 27 27
22 21 21 21 21 20 19 17 16 14 13 12 12 11 12 12 12 12 12 13 14 15 15 16 16 16 17 18 18 19 19 20 20 21 21 22 23 24 24 25 26 27
23 22 21 21 20 19 18 16 15 13 12 12 11 12 12 12 12 13 14 14 15 16 16 16 16 16 17 18 18 18 19 19 20 21 21 22 23 24 24 25 26 27
22 21 20 19 18 17 16 15 14 13 12 12 12 12 12 13 13 13 14 15 15 15 16 16 16 17 17 18 18 19 19 20 21 22 23 24 24 25 26 26 27 27
21 19 19 18 17 16 15 14 13 13 12 12 12 12 12 13 13 14 14 14 15 15 16 17 17 18 19 20 20 21 21 22 23 24 25 26 27 27 28 28 29 30
20 18 17 17 16 15 14 14 13 13 12 12 11 12 12 13 13 13 14 14 15 16 17 18 19 20 21 22 22 23 24 24 25 26 27 29 30 31 32 32 32 33
19 18 16 16 15 14 14 13 12 12 11 11 11 11 12 13 13 14 14 15 16 18 18 20 21 21 22 23 23 24 25 25 27 28 28 30 32 34 35 36 35 36
18 17 16 15 15 14 13 12 12 11 10 10 10 11 12 13 13 14 16 17 18 19 20 21 21 22 23 24 25 26 26 27 28 30 31 31 33 35 37 38 38 39
18 16 16 15 14 13 12 12 11 10 10 9 10 11 12 13 14 15 17 17 18 19 20 21 22 23 24 26 27 27 27 28 29 31 33 34 35 36 38 38 39 41
17 16 15 14 13 12 11 10 10 9 9 9 10 12 13 14 15 16 17 18 19 20 21 22 24 25 26 27 28 29 29 29 31 32 33 35 37 37 38 38 39 40
16 15 15 14 13 11 10 9 9 9 10 10 11 12 13 15 16 17 18 19 20 21 22 23 25 26 27 28 29 30 30 31 32 34 35 37 38 38 38 39 39 39
16 15 14 13 12 10 9 9 9 10 10 11 11 12 13 15 16 17 19 20 21 22 23 25 26 27 29 29 31 32 33 33 34 35 37 38 40 39 38 37 38 37
15 14 13 12 11 10 9 9 9 9 10 10 11 12 13 15 16 18 20 21 22 24 25 27 27 28 30 30 31 33 34 35 35 36 37 39 40 40 38 37 36 36
14 13 12 11 10 9 9 9 9 9 9 10 11 13 14 16 18 19 21 22 24 25 27 28 28 29 30 31 32 32 33 34 35 36 37 38 40 40 39 38 37 36
13 12 11 10 10 9 9 9 8 9 9 11 12 14 16 17 19 20 21 23 24 26 27 28 28 29 29 31 32 32 32 31 32 34 35 37 39 41 40 39 39 38
13 12 11 10 9 9 8 8 8 9 10 11 13 15 16 18 19 21 22 23 25 26 27 28 29 29 29 31 32 32 30 29 29 30 33 36 38 39 41 42 41 41
13 12 10 9 9 8 8 8 8 9 10 12 14 15 17 18 20 22 23 25 26 27 27 28 30 30 30 30 31 31 30 28 28 29 30 34 36 37 40 43 44 46
Wind_Direction
181 184 186 188 191 194 197 203 209 205 203 204 205 211 223 244 266 280 290 298 303 308 310 310 314 318 321 321 319 322 322 316 312 308 306 306 305 304 305 307 308 310
183 183 182 182 184 185 186 189 191 186 184 186 186 192 210 238 278 302 317 335 349 8 18 15 10 3 2 1 354 348 339 331 328 321 315 312 307 303 302 303 302 302
169 166 164 166 170 171 168 165 160 157 156 151 145 136 116 85 61 48 41 38 38 40 39 36 31 22 16 17 16 12 3 357 355 348 340 333 326 321 319 317 314 312
159 159 160 161 164 163 161 158 151 147 144 130 113 100 90 82 77 72 64 58 55 51 49 45 41 33 27 23 19 15 9 2 359 356 356 356 354 349 345 342 337 334
160 160 160 159 157 155 154 149 140 132 125 115 106 100 95 90 85 81 75 70 65 60 56 53 48 43 37 31 25 19 14 8 4 1 2 4 2 356 352 348 344 340
150 149 150 149 145 143 140 131 124 120 115 110 106 102 97 92 87 82 77 70 65 61 57 53 48 44 40 36 32 26 21 16 12 9 7 5 3 360 356 351 346 343
140 139 140 138 135 133 128 121 117 113 110 106 104 99 94 91 86 80 74 68 63 58 53 49 45 40 37 33 29 25 21 17 13 10 8 5 2 360 357 353 348 346
134 133 132 131 128 125 119 115 111 108 106 103 99 94 90 87 82 76 71 65 60 55 50 47 41 36 32 28 25 23 19 15 11 8 6 3 1 359 356 353 349 347
130 128 128 127 123 119 115 112 108 105 103 99 95 91 86 81 77 73 69 63 59 53 48 44 39 34 30 25 23 21 17 14 9 5 2 359 357 356 353 350 348 345
128 126 127 124 120 116 113 109 106 103 101 96 92 88 83 78 74 70 66 60 56 50 45 42 38 33 30 26 22 18 14 11 7 2 360 356 353 352 350 347 344 342
127 127 126 122 119 116 112 109 106 102 99 94 91 88 83 77 71 65 61 56 52 49 45 41 37 32 28 24 19 15 11 6 3 359 356 354 351 348 346 342 339 337
126 125 123 120 118 115 111 109 106 103 100 94 88 83 77 72 67 62 59 56 53 49 45 41 35 29 25 20 14 10 6 2 358 354 351 349 346 344 342 338 335 334
123 122 120 117 115 112 109 107 105 103 99 92 85 79 75 71 67 64 60 56 51 46 42 37 31 25 20 16 12 5 1 358 354 351 348 345 343 340 339 336 332 331
121 119 117 114 111 108 106 104 102 100 96 91 86 80 75 71 66 62 57 51 47 42 37 32 27 23 18 12 9 3 359 355 351 349 345 342 340 338 336 335 332 330
121 118 115 112 110 107 104 102 99 97 95 91 87 80 73 67 60 54 48 43 40 36 33 30 24 20 17 10 6 1 356 352 349 346 343 339 336 335 333 332 331 329
122 120 117 114 111 108 105 102 100 98 92 86 82 76 70 63 54 48 42 36 33 30 27 26 21 17 13 8 3 358 352 348 345 342 340 337 333 332 330 329 329 328
125 123 120 117 113 110 107 103 100 95 87 79 73 67 63 58 50 44 38 32 29 27 23 21 17 12 8 4 0 357 352 346 343 340 338 335 332 329 327 327 326 325
128 126 123 119 114 111 107 100 97 92 83 72 63 58 54 51 46 40 35 29 24 22 19 17 14 8 4 1 357 355 352 346 342 340 336 334 331 328 325 325 324 324
130 128 124 120 114 110 105 99 94 87 76 63 54 51 47 44 41 36 30 25 18 16 14 12 10 5 1 359 355 352 351 346 341 339 336 332 330 328 325 324 323 322
132 129 124 120 114 108 102 96 88 77 68 58 49 45 40 36 34 30 25 20 13 10 9 8 7 3 359 356 353 350 348 345 341 338 335 332 329 327 326 325 324 322
134 131 126 119 113 106 97 89 81 72 64 55 46 40 34 30 27 22 19 15 10 5 4 6 5 0 357 355 352 348 345 343 341 338 334 331 329 327 326 324 322 321
134 131 125 116 110 102 94 86 77 68 59 51 44 35 29 24 21 18 14 10 8 3 360 2 3 357 354 353 351 348 345 343 341 339 335 331 328 327 326 324 322 320
134 129 122 115 109 100 92 84 73 62 52 44 37 28 23 19 16 14 11 6 4 2 358 358 360 357 352 351 352 351 348 345 342 339 335 331 328 327 326 324 322 321
132 127 121 115 109 100 91 82 68 56 45 36 31 23 18 15 10 8 7 3 1 1 358 356 358 358 355 352 353 353 350 346 343 339 335 331 329 327 326 324 323 322
131 127 122 116 110 99 90 80 62 51 41 30 25 20 14 10 6 2 1 0 359 358 359 357 356 357 358 355 354 355 353 348 345 341 336 332 329 327 325 324 322 322
133 130 125 118 110 98 87 74 55 44 36 27 20 16 11 7 3 360 359 359 358 357 358 358 356 356 358 357 354 355 355 351 347 343 338 332 328 325 324 322 321 321